Regional Weather Roundup
Issued by NWS

Home | Current Version | Previous Version | Text Only | Print | Product List | Glossary On
Versions: 1 2 3 4 5 6 7 8 9 10 11 12 13 14 15 16 17 18 19 20 21 22 23 24 25 26 27 28 29 30 31 32 33 34 35 36 37 38 39 40 41 42 43 44 45 46 47 48 49 50
000
ASUS45 KCYS 231210
RWRWY

WYOMING REGIONAL WEATHER ROUNDUP
NATIONAL WEATHER SERVICE CHEYENNE WY
600 AM MDT SAT AUG 23 2014

NOTE:  "FAIR" INDICATES FEW OR NO CLOUDS BELOW 12,000 FEET
WITH NO SIGNIFICANT WEATHER AND/OR OBSTRUCTIONS TO VISIBILITY.

WYZ001-231300-
YELLOWSTONE NATIONAL PARK

CITY           SKY/WX    TMP DP  RH WIND       PRES   REMARKS
LK YELLOWSTONE   N/A     42  41  96 CALM      30.11F
6HR MIN TEMP:  42; 6HR MAX TEMP:  45; 6HR PCP:  0.04;

W YELLOWSTONE  NOT AVBL

$$
WYZ002>013-054>058-071-098>099-231300-
NORTHERN WYOMING

CITY           SKY/WX    TMP DP  RH WIND       PRES   REMARKS
JACKSON        CLOUDY    46  46 100 CALM      30.05S
CODY           CLOUDY    54  52  94 CALM      29.97S
GREYBULL       LGT RAIN  57  56  96 NW8       29.92F
6HR MIN TEMP:  57; 6HR MAX TEMP:  60; 6HR PCP:  0.25;

WORLAND        RAIN      56  55  97 S5        29.93F
6HR MIN TEMP:  56; 6HR MAX TEMP:  59; 6HR PCP:  0.42;

SHERIDAN       CLOUDY    59  57  93 NW5       29.89F
6HR MIN TEMP:  59; 6HR MAX TEMP:  60; 6HR PCP: TRACE;

BUFFALO        LGT RAIN  58  56  93 S3        29.94S FOG
6HR MIN TEMP:  56; 6HR MAX TEMP:  59; 6HR PCP:  0.05;

GILLETTE       CLOUDY    60  59  96 SE7       29.91F
6HR MIN TEMP:  59; 6HR MAX TEMP:  61; 6HR PCP:  0.90;

HULETT         RAIN      61  61 100 MISG      29.94
NEWCASTLE      PTSUNNY   61  59  94 SE9       29.93

$$
WYZ014>020-022>026-101>103-231300-
CENTRAL WYOMING

CITY           SKY/WX    TMP DP  RH WIND       PRES   REMARKS
BIG PINEY      CLOUDY    45  43  93 CALM      30.09R
6HR MIN TEMP:  43; 6HR MAX TEMP:  47;

PINEDALE       PTSUNNY   43  43 100 CALM      30.09R
DUBOIS         FAIR      45  39  81 NW15      30.04S
LANDER         CLOUDY    52  51  97 NW5       29.97S
6HR MIN TEMP:  52; 6HR MAX TEMP:  55; 6HR PCP:  0.13;

RIVERTON       LGT RAIN  52  51  97 S3        29.98S
6HR MIN TEMP:  52; 6HR MAX TEMP:  54; 6HR PCP:  0.08;

CASPER         CLOUDY    57  55  93 CALM      29.95F
6HR MIN TEMP:  57; 6HR MAX TEMP:  59;

DOUGLAS        MOCLDY    58  55  90 S5        29.95S
6HR MIN TEMP:  58; 6HR MAX TEMP:  64; 6HR PCP: TRACE;


$$
WYZ021-027>030-104>119-231300-
SOUTHERN WYOMING

CITY           SKY/WX    TMP DP  RH WIND       PRES   REMARKS
EVANSTON       CLOUDY    45  43  93 W8        30.10R
6HR MIN TEMP:  44; 6HR MAX TEMP:  49; 6HR PCP:  0.06;

KEMMERER       CLOUDY    43  41  93 CALM      30.10S
FORT BRIDGER     N/A     46  44  90 W6        30.12R
ROCK SPRINGS   MOCLDY    45  44  97 CALM      30.08F
6HR MIN TEMP:  45; 6HR MAX TEMP:  47; 6HR PCP:  0.06;

DIXON          CLOUDY    48  47  94 E10       30.13F
RAWLINS        LGT RAIN  47  45  93 SW10      30.08F
6HR MIN TEMP:  47; 6HR MAX TEMP:  59; 6HR PCP:  0.03;

SARATOGA       RAIN      46  43  87 MISG      30.13S
LARAMIE        PTCLDY    47  43  86 VRB3      30.06R
6HR MIN TEMP:  45; 6HR MAX TEMP:  55;

CHEYENNE       CLOUDY    56  55  97 SW5       30.00S
6HR MIN TEMP:  56; 6HR MAX TEMP:  58; 6HR PCP:  0.03;

TORRINGTON     CLOUDY    60  59  96 E10       29.91F
6HR MIN TEMP:  59; 6HR MAX TEMP:  61; 6HR PCP: TRACE;

PINE BLUFFS    CLOUDY    55  55 100 CALM      29.97F

$$



USA.gov is the U.S. government's official web portal to all federal, state and local government web resources and services.